Marathon, FL

2:48 AM EDT on April 29, 2017 (GMT -0400)
Florida Keys Marathon

Weather History for KMTH - July, 2013

Change the Weather History Date:

Tuesday, July 30, 2013

  Actual Average Record
Temperature  
Mean Temperature 87 °F 85 °F  
Max Temperature 92 °F 91 °F 95 °F (2014)
Min Temperature 82 °F 80 °F 75 °F (2004)
Degree Days  
Heating Degree Days 0 0  
Month to date heating degree days 0 0  
Since 1 June heating degree days 0 0  
Since 1 July heating degree days 0 0  
Cooling Degree Days 22 20  
Month to date cooling degree days 601 600  
Year to date cooling degree days 3047 2737  
Since 1 June cooling degree days 1217 1194  
Growing Degree Days 36 (Base 50)    
Moisture  
Dew Point 74 °F    
Average Humidity 68    
Maximum Humidity 74    
Minimum Humidity 61    
Precipitation  
Precipitation 0.00 in 0.15 in 0.20 in (2004)
Month to date precipitation 7.94 4.12  
Year to date precipitation 36.95 21.67  
Snow  
Snow 0.00 in - - ()
Month to date snowfall 0.0  
Since 1 June snowfall 0.0  
Since 1 July snowfall 0.0  
Snow Depth 0.00 in    
Sea Level Pressure  
Sea Level Pressure 30.10 in    
Wind  
Wind Speed 6 mph (East)    
Max Wind Speed 13 mph    
Max Gust Speed 23 mph    
Visibility 10 miles    
Events      
T = Trace of Precipitation, MM = Missing Value Source: NWS Daily Summary

Daily Weather History Graph

Daily Weather History Graph

Search for Another Location

Airport or City:

Trip Planner

Search our weather history database for the weather conditions in past years. The results will help you decide how hot, cold, wet, or windy it might be!

Date:

Astronomy

Jul. 30, 2013 Rise Set
Actual Time 6:51 AM EDT 8:09 PM EDT
Civil Twilight 6:26 AM EDT 8:34 PM EDT
Nautical Twilight 5:57 AM EDT 9:03 PM EDT
Astronomical Twilight 5:27 AM EDT 9:33 PM EDT
Moon 1:03 AM EDT (7/30) 2:30 PM EDT (7/30)
Length of Visible Light 14h 07m
Length of Day
13h 18m
Last Quarter, 41% of the Moon is Illuminated
Jul 30
Last Quarter
Aug 6
New
Aug 14
First Quarter
Aug 20
Full
Aug 28
Last Quarter

Hourly Weather History & Observations

Time (EDT) Temp. Heat Index Dew Point Humidity Pressure Visibility Wind Dir Wind Speed Gust Speed Precip Events Conditions
12:53 AM 86.0 °F 93.8 °F 73.9 °F 67% 30.12 in 10.0 mi ENE 6.9 mph - N/A   Clear
1:53 AM 86.0 °F 95.1 °F 75.0 °F 70% 30.11 in 10.0 mi East 5.8 mph - N/A   Partly Cloudy
2:53 AM 84.9 °F 92.1 °F 73.9 °F 69% 30.09 in 10.0 mi East 6.9 mph - N/A   Partly Cloudy
3:53 AM 84.9 °F 92.1 °F 73.9 °F 69% 30.08 in 10.0 mi East 5.8 mph - N/A   Partly Cloudy
4:53 AM 84.9 °F 93.3 °F 75.0 °F 72% 30.07 in 10.0 mi ESE 4.6 mph - N/A   Partly Cloudy
5:19 AM 84.2 °F 92.3 °F 75.2 °F 74% 30.07 in 10.0 mi ESE 12.7 mph 23.0 mph N/A   Mostly Cloudy
5:44 AM 82.4 °F 87.2 °F 71.6 °F 70% 30.07 in 10.0 mi East 4.6 mph - N/A   Scattered Clouds
5:53 AM 82.0 °F 86.3 °F 71.1 °F 69% 30.06 in 10.0 mi Calm Calm - N/A   Partly Cloudy
6:53 AM 82.9 °F 88.0 °F 72.0 °F 69% 30.09 in 10.0 mi Calm Calm - N/A   Clear
7:53 AM 84.9 °F 93.3 °F 75.0 °F 72% 30.11 in 10.0 mi ENE 3.5 mph - N/A   Partly Cloudy
8:53 AM 84.0 °F 91.9 °F 75.0 °F 74% 30.12 in 10.0 mi East 5.8 mph - N/A   Scattered Clouds
9:53 AM 84.0 °F 90.2 °F 73.0 °F 69% 30.13 in 10.0 mi East 5.8 mph - N/A   Scattered Clouds
10:53 AM 86.0 °F 93.8 °F 73.9 °F 67% 30.14 in 10.0 mi East 5.8 mph - N/A   Clear
11:53 AM 88.0 °F 97.5 °F 75.0 °F 65% 30.14 in 10.0 mi East 9.2 mph - N/A   Partly Cloudy
12:53 PM 90.0 °F 101.3 °F 75.9 °F 63% 30.13 in 10.0 mi East 8.1 mph 17.3 mph N/A   Partly Cloudy
1:53 PM 88.0 °F 97.5 °F 75.0 °F 65% 30.13 in 10.0 mi East 10.4 mph - N/A   Partly Cloudy
2:53 PM 88.0 °F 97.5 °F 75.0 °F 65% 30.10 in 10.0 mi East 8.1 mph - N/A   Clear
3:53 PM 87.1 °F 97.3 °F 75.9 °F 69% 30.08 in 10.0 mi Variable 5.8 mph - N/A   Clear
4:53 PM 88.0 °F 97.5 °F 75.0 °F 65% 30.08 in 10.0 mi Variable 6.9 mph - N/A   Partly Cloudy
5:53 PM 87.1 °F 96.3 °F 75.0 °F 67% 30.07 in 10.0 mi East 8.1 mph - N/A   Clear
6:53 PM 86.0 °F 93.8 °F 73.9 °F 67% 30.08 in 10.0 mi East 8.1 mph - N/A   Clear
7:53 PM 86.0 °F 95.1 °F 75.0 °F 70% 30.09 in 10.0 mi East 8.1 mph - N/A   Scattered Clouds
8:53 PM 86.0 °F 93.0 °F 73.0 °F 65% 30.09 in 10.0 mi East 8.1 mph - N/A   Clear
9:53 PM 86.0 °F 93.8 °F 73.9 °F 67% 30.06 in 10.0 mi NNE 4.6 mph - N/A   Clear
10:53 PM 84.9 °F 93.3 °F 75.0 °F 72% 30.09 in 10.0 mi ENE 8.1 mph - N/A   Partly Cloudy
11:53 PM 84.9 °F 89.4 °F 70.0 °F 61% 30.09 in 10.0 mi East 8.1 mph - N/A   Clear